Siga o Apolo11 no Facebook   Siga o Apolo11 no Twiiter
Ciência, Espaço e Tecnologia




Elementos Keplerianos formato Two Line

Para que um programa de rastreio possa saber a localização exata de qualquer satélite no espaço e assim poder rastreá-lo corretamente, é necessário que ele seja carregado com algumas informações.

Estas informações são chamadas de Elementos Orbitais ou Elementos Keplerianos e consistem em 2 linhas com dezenas de números. Esses números nada mais são que os parâmetros orbitais do satélite, tais como altitude, atitude, excentricidade da órbita, número de órbitas por dia, etc.

Com base nestas informações o programa é capaz de determinar com bastante exatidão a posição de qualquer satélite no espaço e nos informar em qual horário este estará dentro do alcance de nossa estação. Para que isso seja feito com precisão é necessário que os dados estejam sempre bem atualizadas.

Devido aos parâmetros orbitais serem descritos em 2 linhas, estes formato é também conhecido internacionalmente por 2line (leia-se Two Line”).

Para atualizar seu programa de rastreio basta copiar os dados disponibilizados e fornece-los ao programa. Nossos elementos orbitais são atualizados diariamente.

NOAATodos os satélites ambientais da série NOAA
30 DiasSatélites lançados nos últimos 30 dias
ISSSatélites e foguetes relacionados à Estação Espacial Internacional
HAMSatélites construídos por radiomadores
CUBESatélites tipo cubo, com 10 centímetros de lado
METEOSatélites voltados à previsão do tempo
EDUSatélites construídos e operados por universidades
VIS100 satélites mais brilhantes que podem ser vistos a olho nú



Satélites Visíveis
ATLAS CENTAUR 2         
1 00694U 63047A   24280.18625553  .00004659  00000+0  57229-3 0  9991
2 00694  30.3552 212.3987 0561291 192.1748 166.4766 14.08674724 58212
THOR AGENA D R/B        
1 00733U 64002A   24280.46688805  .00001809  00000+0  66865-3 0  9997
2 00733  99.0886 255.3352 0032761 331.9988  27.9432 14.33435704163898
SL-3 R/B                
1 00877U 64053B   24280.44012852  .00002622  00000+0  55006-3 0  9992
2 00877  65.0800  52.6913 0056280 156.5134 203.8555 14.60607735190934
SL-8 R/B                
1 02802U 67045B   24280.38952140  .00002849  00000+0  80450-3 0  9994
2 02802  74.0120 237.4733 0064938   8.6621 351.5640 14.44914631 13993
SL-8 R/B                
1 03230U 68040B   24280.46450111  .00009685  00000+0  82122-3 0  9999
2 03230  74.0325 290.6854 0028195 253.8406 105.9676 14.97739423 12116
OAO 2                   
1 03597U 68110A   24280.36675207  .00001604  00000+0  44244-3 0  9993
2 03597  34.9933 283.7215 0005546 348.1905  11.8655 14.46756309943866
ISIS 1                  
1 03669U 69009A   24280.55255021  .00001362  00000+0  96136-3 0  9998
2 03669  88.4481 211.9402 1709989  57.0673 318.3365 11.30001698289882
SERT 2                  
1 04327U 70009A   24280.48244274  .00000130  00000+0  23317-3 0  9995
2 04327  99.2015 242.8422 0005717  56.8082  51.1194 13.58646298709387
SL-3 R/B                
1 05118U 71028B   24280.53154745  .00028617  00000+0  88524-3 0  9996
2 05118  81.2470 318.1031 0030747 305.7509  54.0870 15.32872735908471
ASTEX 1                 
1 05560U 71089A   24280.43885566  .00002791  00000+0  72388-3 0  9991
2 05560  92.7178 343.8381 0017267  44.1604 316.0977 14.49748671787044
SL-8 R/B                
1 05730U 71119B   24280.42504160  .00026984  00000+0  15429-2 0  9993
2 05730  73.8920  57.8317 0601308 130.5057 235.0113 14.24751987581159
COSMOS 482 DESCENT CRAFT
1 06073U 72023E   24280.28637380  .00182201  92370-5  24421-3 0  9999
2 06073  51.9850 211.9331 0582324  60.1010 305.6502 14.93125482718082
OAO 3 (COPERNICUS)      
1 06153U 72065A   24280.56116209  .00002255  00000+0  47522-3 0  9997
2 06153  35.0078  13.5147 0007192 238.8886 139.3372 14.59206273770307
ATLAS CENTAUR R/B       
1 06155U 72065B   24277.59083779  .00006720  00000+0  97057-3 0  9992
2 06155  35.0008 120.5903 0036110 302.1777  57.5423 14.75184110784954
SL-8 R/B                
1 08459U 75112B   24280.37699269  .00001546  00000+0  52239-3 0  9998
2 08459  74.0595 253.8925 0014464 117.0716 243.1915 14.37668274557228
SL-3 R/B                
1 10114U 77057B   24277.65175255  .00021559  00000+0  72133-3 0  9991
2 10114  97.5245  63.0854 0009764   2.0585 358.0694 15.30949605588067
SEASAT 1                
1 10967U 78064A   24280.43843195  .00002100  00000+0  63619-3 0  9991
2 10967 108.0034 116.7720 0002072 248.8516 111.2408 14.45269466431462
SL-14 R/B               
1 11267U 79011B   24280.56563044  .00003378  00000+0  34056-3 0  9995
2 11267  82.5250 228.6900 0016178 357.3808   2.7324 14.90768711451401
SL-8 R/B                
1 11574U 79089B   24280.43604588  .00001439  00000+0  44815-3 0  9996
2 11574  74.0704 331.8360 0017070 276.9932  82.9282 14.41757715361259
SL-14 R/B               
1 11672U 80005B   24280.50587005  .00003036  00000+0  31326-3 0  9995
2 11672  82.5124  79.3151 0017561  93.5244 266.7983 14.89784968399156
SL-8 R/B                
1 12139U 81003B   24280.58810148  .00043168  00000+0  14951-2 0  9992
2 12139  82.9402  42.0754 0348103 154.3488 207.5474 14.87503019236881
SL-3 R/B                
1 12465U 81046B   24280.52305716  .00021258  00000+0  77030-3 0  9999
2 12465  81.2396 186.5495 0026708  17.2514 342.9622 15.27905210358770
METEOR PRIRODA          
1 12585U 81065A   24280.12428849  .00044253  00000+0  91814-3 0  9998
2 12585  97.5340 313.0531 0009672  44.5133 315.6890 15.45534654363018
SL-3 R/B                
1 12904U 81103B   24277.58787672  .00012114  00000+0  66194-3 0  9998
2 12904  81.1592 102.7000 0018759 254.2509 105.6650 15.14051242894257
SL-3 R/B                
1 13068U 82013B   24280.60643503  .00013282  00000+0  69461-3 0  9999
2 13068  81.1788  46.4863 0025283 123.6593 236.7052 15.15473793325542
SL-3 R/B                
1 13154U 82039B   24277.60949204  .00010023  00000+0  69239-3 0  9999
2 13154  81.1775  94.7668 0034171 235.3554 124.4446 15.05168085303222
SL-3 R/B                
1 13403U 82079B   24277.54670699  .00015870  00000+0  80634-3 0  9999
2 13403  81.1470  86.1128 0029360 123.2354 237.1695 15.16388187298549
COSMOS 1408             
1 13552U 82092A   24280.08706191  .00396387  61458-4  98407-3 0  9990
2 13552  82.5406 123.0198 0004613 261.0471  99.0283 15.95826315162951
SL-14 R/B               
1 13553U 82092B   24280.52524444  .00002376  00000+0  27020-3 0  9995
2 13553  82.5650 266.7536 0019659 218.8110 278.9986 14.85723335251818
SL-3 R/B                
1 13819U 83010B   24280.46124096  .00023057  00000+0  78243-3 0  9995
2 13819  81.1069 271.0923 0023736  48.7811 311.5465 15.30110926278115
COSMOS 1455             
1 14032U 83037A   24280.51739644  .00045622  00000+0  96978-3 0  9996
2 14032  82.5029 313.2502 0007276 304.7357  55.3205 15.44773655266893
SL-3 R/B                
1 14208U 83075B   24280.50223363  .00020557  00000+0  83103-3 0  9994
2 14208  97.5817 260.7180 0026954 269.4045  90.4103 15.24427014250671
COSMOS 1500             
1 14372U 83099A   24280.55734040  .00065854  00000+0  12439-2 0  9998
2 14372  82.5063 206.1638 0012371  97.5245 262.7411 15.48095475243409
COSMOS 1536             
1 14699U 84013A   24280.44315961  .00013427  00000+0  72342-3 0  9991
2 14699  82.5460 260.4737 0015166 296.8441  63.1240 15.14598760193766
SL-14 R/B               
1 14820U 84027B   24280.39313881  .00002594  00000+0  30030-3 0  9996
2 14820  82.5464  11.7223 0016944 251.1452 108.7927 14.85073271170534
SL-8 R/B                
1 15483U 85006B   24280.51841336  .00001111  00000+0  38118-3 0  9994
2 15483  74.0448 136.1076 0018824 182.2501 243.9604 14.37231766 79426
COSMOS 1626             
1 15494U 85009A   24280.55405277  .00153798  00000+0  12128-2 0  9994
2 15494  82.4583  72.1367 0002608 328.2398  31.8706 15.70941802176198
SL-12 R/B(2)            
1 15772U 85042D   24280.24490534  .00000669  00000+0  32389-3 0  9996
2 15772  71.1063 104.9697 0036594 217.0780 316.2696 14.21714552 40559
SL-14 R/B               
1 15945U 85069B   24280.60061437  .00002020  00000+0  23042-3 0  9992
2 15945  82.5280 152.7675 0020617 109.4059 250.9388 14.85509280 95740
SL-16 R/B               
1 16182U 85097B   24280.42225456  .00000305  00000+0  17702-3 0  9990
2 16182  71.0027 153.6697 0008997 315.6638 221.6075 14.16471602 13693
SL-14 R/B               
1 16496U 86006B   24280.59256696  .00002667  00000+0  30484-3 0  9992
2 16496  82.5282  27.8274 0017410 257.0473 113.7491 14.85602808 72104
COSMOS 1743             
1 16719U 86034A   24280.34609258  .00028808  00000+0  93983-3 0  9998
2 16719  82.5430 246.2283 0008687  21.0791 339.0806 15.31610235100135
SL-14 R/B               
1 16792U 86046B   24280.37152600  .00002610  00000+0  30408-3 0  9995
2 16792  82.4848 210.4654 0024638 140.2144 220.0885 14.84678385 49329
SL-14 R/B               
1 16882U 86055B   24280.53123933  .00002568  00000+0  29988-3 0  9993
2 16882  82.5185 254.3225 0017642 246.6666 253.2939 14.84710828 42300
AJISAI (EGS)            
1 16908U 86061A   24280.53802382 -.00000077  00000+0  14383-3 0  9998
2 16908  50.0078 249.7174 0011366  45.5932  60.9989 12.44508032403350
COSMOS 1812             
1 17295U 87003A   24280.53433131  .00041138  00000+0  11400-2 0  9995
2 17295  82.5089  23.5820 0002121 191.1293 168.9904 15.36773672 63597
SL-14 R/B               
1 17567U 87024B   24280.32332837  .00002629  00000+0  30309-3 0  9990
2 17567  82.5303 220.4903 0018708 174.3204 185.8228 14.85215113 11012
COSMOS 1833             
1 17589U 87027A   24280.53655913  .00000066  00000+0  60924-4 0  9993
2 17589  70.9236 337.2099 0026190 269.2871  90.5249 14.13006663936978
SL-16 R/B               
1 17590U 87027B   24280.45328023  .00000091  00000+0  69028-4 0  9997
2 17590  71.0016 290.5464 0006061 216.7403 143.3306 14.17023138941829
SL-14 R/B               
1 17912U 87038B   24280.52606465  .00002619  00000+0  30720-3 0  9998
2 17912  82.5009  65.5274 0021008  80.3214 280.0373 14.84467733  2185
